Location: Antoign�
(47.0844°N, 0.1131°W)
Time: 08:14:44
(UTC+00:00)

Meteor 2-12 Rocket - Pass Details

Date: 03 March 2021
Orbit: 936 x 956 km, 82.5° (Epoch: 11 April)

Event Time Altitude Azimuth Distance (km) Brightness Sun altitude
Rises 18:49:21 0° 179° (S) 3,584 7.4 -11.1°
Reaches altitude 10° 18:51:49 10° 177° (S) 2,646 6.7 -11.5°
Maximum altitude 18:57:50 70° 95° (E) 1,000 4.4 -12.5°
Drops below altitude 10° 19:03:54 10° 13° (NNE) 2,677 6.7 -13.5°
Sets 19:06:25 0° 12° (NNE) 3,630 7.4 -14.0°
